Simultaneous Nadir Overpasses (SNOs) Predictions

Prediction of SNOs between NPP and TERRA Satellite Orbit:

Table of predicted SNOs for the next 14.0 days since TLE Epoch: 10/16/2016
Index Date (NPP) Time (NPP) Lat,Lon (NPP) SZA (NPP ) Date (TERRA) Time (TERRA) Lat,Lon (TERRA) SZA (TERRA ) Distance(km) Time Diff (sec)
1 10/17/2016 10:39:53 -68.46,-161.28 102.15 10/17/2016 10:40:31 -68.46,-161.24 102.14 1.91 38
2 10/17/2016 11:30:37 68.31, 6.21 77.73 10/17/2016 11:29:59 68.30, 6.21 77.70 1.98 38
3 10/20/2016 02:06:14 68.91, 146.56 79.26 10/20/2016 02:07:25 68.79, 147.41 79.15 37.00 71
4 10/20/2016 02:56:48 -68.41, -45.46 101.23 10/20/2016 02:57:00 -68.40, -45.43 101.24 1.43 12
5 10/20/2016 03:47:32 68.27, 122.03 78.65 10/20/2016 03:46:27 68.29, 122.08 78.66 2.84 65
6 10/22/2016 18:23:02 68.50, -97.13 79.80 10/22/2016 18:23:58 68.49, -97.07 79.79 2.44 56
7 10/22/2016 19:13:42 -68.31, 70.43 100.37 10/22/2016 19:13:29 -68.33, 70.36 100.36 3.14 13
8 10/22/2016 20:04:15 67.59,-121.36 78.93 10/22/2016 20:03:06 67.65,-122.78 78.96 60.69 69
9 10/25/2016 10:39:55 68.41, 18.75 80.64 10/25/2016 10:40:26 68.40, 18.70 80.63 2.65 31
10 10/25/2016 11:30:36 -68.27,-173.76 99.48 10/25/2016 11:29:56 -68.29,-173.79 99.47 2.72 40
11 10/28/2016 02:06:11 -68.77, -33.27 98.12 10/28/2016 02:07:23 -68.69, -32.71 98.18 24.25 72
12 10/28/2016 02:56:50 68.38, 134.56 81.52 10/28/2016 02:56:53 68.40, 134.59 81.54 3.01 3
13 10/28/2016 03:47:31 -68.24, -57.95
